Regional Weather Roundup
Issued by NWS Cleveland, OH

Home | Current Version | Previous Version | Graphics & Text | Print | Product List | Glossary On
Versions: 1 2 3 4 5 6 7 8 9 10 11 12 13 14 15 16 17 18 19 20 21 22 23 24 25 26 27 28 29 30 31 32 33 34 35 36 37 38 39 40 41 42 43 44 45 46 47 48 49 50
000
ASUS41 KCLE 210700
RWRCLE
OHIO REGIONAL WEATHER ROUNDUP
NATIONAL WEATHER SERVICE WILMINGTON, OH
300 AM EDT MON AUG 21 2017

NOTE: "FAIR" INDICATES FEW OR NO CLOUDS BELOW 12,000 FEET WITH NO
SIGNIFICANT WEATHER AND/OR OBSTRUCTIONS TO VISIBILITY.

OHZ001>008-015>018-024>027-034-035-043-044-210800-
   NORTHWEST OHIO

CITY           SKY/WX    TMP DP  RH WIND       PRES   REMARKS
DEFIANCE       FAIR      69  66  90 CALM      30.11R
FINDLAY        FAIR      69  65  86 S3        30.10S
TOLEDO EXPRESS FAIR      69  69 100 CALM      30.09F
TOLEDO EXEC    FAIR      70  69  97 S3        30.10S
LIMA           FAIR      68  65  90 CALM      30.12S
$$

OHZ009>014-019>023-028>033-038-089-210800-
   NORTHEAST OHIO

CITY           SKY/WX    TMP DP  RH WIND       PRES   REMARKS
CLE-HOPKINS    MOCLDY    79  66  64 S8        30.12S
CLE-LAKEFRONT  FAIR      77  64  64 S10       30.08F
CUY CO. ARPT   NOT AVBL
LORAIN-ELYRIA    N/A    N/A N/A N/A MISG      30.11S
ASHTABULA      CLOUDY    70  63  78 S5        30.13F
AKRON-CANTON   FAIR      72  64  76 S7        30.14S
WOOSTER        NOT AVBL
MANSFIELD      FAIR      69  67  93 S6        30.14S
YOUNGSTOWN     MOCLDY    71  61  70 SE7       30.14S
$$

OHZ042-051>053-060>062-070>072-077>081-210800-
  SOUTHWEST OHIO

CITY           SKY/WX    TMP DP  RH WIND       PRES   REMARKS
CINC-COVINGTON FAIR      74  70  87 S6        30.14R
CINC-LUNKEN    FAIR      70  70 100 CALM      30.13R FOG
HAMILTON       FAIR      68  68 100 CALM      30.13S
DAYTON         NOT AVBL
WRIGHT-PAT AFB MOCLDY    70  67  92 CALM      30.13R
DAYTON GENERAL MOCLDY    74  66  76 S5        30.13R
WILMINGTON     FAIR      70  69  97 CALM      30.14R
$$

OHZ036-037-039>041-045>050-054>059-063>069-073>076-082>088-210800-
  CENTRAL AND SOUTHEAST OHIO

CITY           SKY/WX    TMP DP  RH WIND       PRES   REMARKS
COLUMBUS       FAIR      73  70  90 CALM      30.13S
OSU AIRPORT    FAIR      72  68  87 CALM      30.13S
BOLTON FIELD   NOT AVBL
RICKENBACK AFB NOT AVBL
NEWARK         FAIR      69  67  93 CALM      30.13S FOG
MARION         FAIR      67  64  90 S5        30.13S
LANCASTER      FAIR      67  67 100 CALM      30.14S FOG
ZANESVILLE     FAIR      71  67  87 CALM      30.14S
NEW PHILLY     FAIR      69  68  96 CALM      30.14F
$$




USA.gov is the U.S. government's official web portal to all federal, state and local government web resources and services.